Weather History for Caldwell, ID

Change the Weather History Date:

Thursday, November 3, 2011

  Actual Average (KBOI) Record (KBOI)
Temperature  
Mean Temperature 45 °F 45 °F  
Max Temperature 53 °F 55 °F 72 °F (1917)
Min Temperature 37 °F 36 °F 11 °F (1935)
Degree Days  
Heating Degree Days 20 20  
Month to date heating degree days 58  
Since 1 July heating degree days 564  
Cooling Degree Days 0 0  
Month to date cooling degree days 0  
Year to date cooling degree days 942  
Moisture  
Dew Point 16 °F    
Average Humidity 32    
Maximum Humidity 49    
Minimum Humidity 22    
Precipitation  
Precipitation 0.00 in 0.04 in 0.86 in (1938)
Month to date precipitation 0.11  
Year to date precipitation 8.94  
Snow  
Snow 0.00 in 0.10 in T in (2003)
Month to date snowfall 0.1  
Since 1 July snowfall 0.2  
Snow Depth -    
Sea Level Pressure  
Sea Level Pressure 29.81 in    
Wind  
Wind Speed 21 mph (South)    
Max Wind Speed 29 mph    
Max Gust Speed 37 mph    
Visibility 10 miles    
Events      
T = Trace of Precipitation, MM = Missing Value Source: NWS Daily Summary

Daily Weather History Graph

Daily Weather History Graph

Search for Another Location

Airport:

Trip Planner

Search our weather history database for the weather conditions in past years. The results will help you decide how hot, cold, wet, or windy it might be!

Date:

Astronomy

Nov. 03, 2011 Rise Set
Actual Time 8:24 AM MDT 6:34 PM MDT
Civil Twilight 7:54 AM MDT 7:04 PM MDT
Nautical Twilight 7:20 AM MDT 7:38 PM MDT
Astronomical Twilight 6:47 AM MDT 8:12 PM MDT
Moon 3:11 PM MDT (11/3) 1:29 AM MDT (11/3)
Length of Visible Light 11h 10m
Length of Day
10h 10m
First Quarter, 61% of the Moon is Illuminated
Nov 3
First Quarter
Nov 10
Full
Nov 18
Last Quarter
Nov 24
New
Dec 2
First Quarter

Hourly Weather History & Observations

Time (MDT) Temp. Windchill Dew Point Humidity Pressure Visibility Wind Dir Wind Speed Gust Speed Precip Events Conditions
12:15 AM 42.8 °F 34.0 °F 12.2 °F 29% 30.07 in 10.0 mi SSE 20.7 mph 29.9 mph N/A   Clear
12:35 AM 42.8 °F 33.3 °F 12.2 °F 29% 30.06 in 10.0 mi South 24.2 mph 28.8 mph N/A   Clear
12:55 AM 42.8 °F 33.3 °F 12.2 °F 29% 30.06 in 10.0 mi SSE 24.2 mph 33.4 mph N/A   Clear
1:15 AM 41.0 °F 30.9 °F 12.2 °F 31% 30.05 in 10.0 mi SSE 24.2 mph 29.9 mph N/A   Clear
1:35 AM 39.2 °F 28.0 °F 12.2 °F 33% 30.05 in 10.0 mi SSE 26.5 mph 31.1 mph N/A   Clear
1:55 AM 39.2 °F 28.3 °F 12.2 °F 33% 30.03 in 10.0 mi SSE 25.3 mph 31.1 mph N/A   Clear
2:15 AM 39.2 °F 29.0 °F 12.2 °F 33% 30.03 in 10.0 mi SSE 21.9 mph 31.1 mph N/A   Clear
2:35 AM 39.2 °F 28.7 °F 12.2 °F 33% 30.02 in 10.0 mi SSE 23.0 mph 27.6 mph N/A   Clear
2:55 AM 39.2 °F 29.3 °F 12.2 °F 33% 30.01 in 10.0 mi South 20.7 mph - N/A   Clear
3:15 AM 39.2 °F 29.3 °F 10.4 °F 31% 30.00 in 10.0 mi South 20.7 mph 31.1 mph N/A   Clear
3:55 AM 39.2 °F 29.3 °F 10.4 °F 31% 30.00 in 10.0 mi South 20.7 mph 29.9 mph N/A   Clear
4:35 AM 39.2 °F 29.6 °F 12.2 °F 33% 29.98 in 10.0 mi SSE 19.6 mph 26.5 mph N/A   Clear
4:55 AM 39.2 °F 29.3 °F 12.2 °F 33% 29.97 in 10.0 mi SSE 20.7 mph 27.6 mph N/A   Clear
5:15 AM 39.2 °F 28.0 °F 12.2 °F 33% 29.97 in 10.0 mi South 26.5 mph 31.1 mph N/A   Clear
5:35 AM 39.2 °F 29.0 °F 12.2 °F 33% 29.96 in 10.0 mi South 21.9 mph 31.1 mph N/A   Clear
6:15 AM 39.2 °F 28.7 °F 12.2 °F 33% 29.94 in 10.0 mi South 23.0 mph 28.8 mph N/A   Clear
6:55 AM 39.2 °F 29.6 °F 12.2 °F 33% 29.93 in 10.0 mi SSE 19.6 mph 26.5 mph N/A   Clear
7:15 AM 39.2 °F 29.0 °F 12.2 °F 33% 29.94 in 10.0 mi South 21.9 mph 27.6 mph N/A   Clear
7:35 AM 39.2 °F 29.8 °F 12.2 °F 33% 29.93 in 10.0 mi South 18.4 mph 27.6 mph N/A   Clear
7:55 AM 37.4 °F 26.6 °F 14.0 °F 38% 29.92 in 10.0 mi SSE 21.9 mph - N/A   Clear
8:15 AM 37.4 °F 27.2 °F 14.0 °F 38% 29.92 in 10.0 mi SSE 19.6 mph 25.3 mph N/A   Clear
8:55 AM 37.4 °F 27.5 °F 14.0 °F 38% 29.91 in 10.0 mi SSE 18.4 mph 25.3 mph N/A   Clear
9:15 AM 39.2 °F 29.3 °F 14.0 °F 36% 29.90 in 10.0 mi SSE 20.7 mph 31.1 mph N/A   Clear
9:35 AM 39.2 °F 29.6 °F 15.8 °F 39% 29.90 in 10.0 mi SSE 19.6 mph 29.9 mph N/A   Clear
9:55 AM 41.0 °F 31.9 °F 15.8 °F 36% 29.89 in 10.0 mi SSE 19.6 mph 25.3 mph N/A   Clear
10:15 AM 42.8 °F 33.3 °F 15.8 °F 34% 29.88 in 10.0 mi SSE 24.2 mph 32.2 mph N/A   Clear
10:35 AM 44.6 °F 35.3 °F 15.8 °F 31% 29.87 in 10.0 mi SSE 26.5 mph 31.1 mph N/A   Clear
10:55 AM 44.6 °F 35.7 °F 17.6 °F 34% 29.86 in 10.0 mi SSE 24.2 mph 32.2 mph N/A   Clear
11:35 AM 46.4 °F 38.3 °F 17.6 °F 32% 29.84 in 10.0 mi SSE 23.0 mph 33.4 mph N/A   Clear
11:55 AM 48.2 °F - 19.4 °F 32% 29.84 in 10.0 mi SSE 23.0 mph 31.1 mph N/A   Clear
12:15 PM 48.2 °F - 19.4 °F 32% 29.83 in 10.0 mi SSE 16.1 mph 27.6 mph N/A   Clear
12:35 PM 50.0 °F - 19.4 °F 30% 29.82 in 10.0 mi SSE 18.4 mph 26.5 mph N/A   Clear
12:55 PM 53.6 °F - 17.6 °F 24% 29.80 in 10.0 mi SSE 23.0 mph 32.2 mph N/A   Partly Cloudy
1:15 PM 53.6 °F - 15.8 °F 22% 29.79 in 8.0 mi SSE 28.8 mph 36.8 mph N/A   Mostly Cloudy
1:35 PM 53.6 °F - 15.8 °F 22% 29.78 in 10.0 mi SSE 24.2 mph 34.5 mph N/A   Mostly Cloudy
1:55 PM 53.6 °F - 17.6 °F 24% 29.77 in 10.0 mi SSE 23.0 mph 32.2 mph N/A   Partly Cloudy
2:15 PM 53.6 °F - 17.6 °F 24% 29.76 in 10.0 mi SSE 23.0 mph 31.1 mph N/A   Clear
2:55 PM 53.6 °F - 17.6 °F 24% 29.74 in 10.0 mi SSE 17.3 mph - N/A   Clear
3:15 PM 53.6 °F - 19.4 °F 26% 29.72 in 10.0 mi SSE 15.0 mph 23.0 mph N/A   Clear
3:35 PM 53.6 °F - 19.4 °F 26% 29.71 in 10.0 mi SSE 17.3 mph 23.0 mph N/A   Clear
3:55 PM 53.6 °F - 19.4 °F 26% 29.70 in 10.0 mi SSE 16.1 mph 23.0 mph N/A   Clear
4:15 PM 53.6 °F - 19.4 °F 26% 29.69 in 10.0 mi South 21.9 mph - N/A   Clear
4:35 PM 53.6 °F - 19.4 °F 26% 29.66 in 10.0 mi SSE 20.7 mph 27.6 mph N/A   Clear
4:55 PM 53.6 °F - 19.4 °F 26% 29.66 in 10.0 mi SSE 20.7 mph 25.3 mph N/A   Clear
5:15 PM 53.6 °F - 19.4 °F 26% 29.65 in 10.0 mi South 19.6 mph 27.6 mph N/A   Clear
5:35 PM 53.6 °F - 19.4 °F 26% 29.63 in 10.0 mi SSE 16.1 mph 23.0 mph N/A   Clear
5:55 PM 53.6 °F - 19.4 °F 26% 29.63 in 10.0 mi South 16.1 mph 23.0 mph N/A   Clear
6:15 PM 53.6 °F - 19.4 °F 26% 29.62 in 10.0 mi South 17.3 mph 23.0 mph N/A   Clear
6:35 PM 51.8 °F - 19.4 °F 28% 29.61 in 10.0 mi South 15.0 mph - N/A   Clear
6:55 PM 51.8 °F - 19.4 °F 28% 29.60 in 10.0 mi South 16.1 mph 20.7 mph N/A   Partly Cloudy
7:15 PM 51.8 °F - 19.4 °F 28% 29.60 in 10.0 mi SSE 16.1 mph 21.9 mph N/A   Partly Cloudy
7:35 PM 51.8 °F - 19.4 °F 28% 29.60 in 10.0 mi South 12.7 mph - N/A   Mostly Cloudy
8:15 PM 46.4 °F 40.1 °F 19.4 °F 34% 29.62 in 10.0 mi West 15.0 mph 20.7 mph N/A   Overcast
8:35 PM 42.8 °F 36.6 °F 19.4 °F 39% 29.62 in 10.0 mi WNW 11.5 mph - N/A   Mostly Cloudy
8:55 PM 42.8 °F 37.0 °F 19.4 °F 39% 29.62 in 10.0 mi WNW 10.4 mph - N/A   Scattered Clouds
9:15 PM 42.8 °F 36.6 °F 21.2 °F 42% 29.61 in 10.0 mi WNW 11.5 mph - N/A   Partly Cloudy
9:35 PM 42.8 °F 38.0 °F 21.2 °F 42% 29.62 in 10.0 mi West 8.1 mph - N/A   Clear
9:55 PM 42.8 °F 37.5 °F 19.4 °F 39% 29.62 in 10.0 mi NW 9.2 mph - N/A   Mostly Cloudy
10:15 PM 42.8 °F 35.8 °F 19.4 °F 39% 29.62 in 10.0 mi WNW 13.8 mph - N/A   Mostly Cloudy
11:15 PM 39.2 °F 35.0 °F 19.4 °F 45% 29.62 in 10.0 mi West 5.8 mph - N/A   Clear
11:35 PM 39.2 °F 33.6 °F 21.2 °F 49% 29.61 in 10.0 mi WNW 8.1 mph - N/A   Clear
11:55 PM 39.2 °F 33.6 °F 24.8 °F 56% 29.61 in 10.0 mi West 8.1 mph - N/A   Clear